When you browse on this site, cookies collect data to enhance your experience and personalize the content and advertising you see.
Visit our Privacy Policy to learn more. By continuing to use the site, you agree to this use of cookies and data.
  • In Lithuania
  • List of Countries
  • For 7 days
  • Water Temperature
  • Weather Map
  • Weather Widgets
  • user-avatar
    Login

    Hourly Weather Krobia

    Today, 20 October, Sunday

    Time Temperature Precipitation Wind Pressure Humidity
    00:00 +13°C° 0 mm 2 mps 749 mmHg 88%
    01:00 +13°C° 0 mm 2 mps 749 mmHg 90%
    02:00 +13°C° 0 mm 2 mps 749 mmHg 91%
    03:00 +12°C° 0 mm 2 mps 749 mmHg 91%
    04:00 +12°C° 0 mm 2 mps 749 mmHg 91%
    05:00 +12°C° 0 mm 2 mps 749 mmHg 90%
    06:00 +12°C° 0 mm 2 mps 749 mmHg 89%
    07:00 +12°C° 0 mm 2 mps 749 mmHg 88%
    08:00 +14°C° 0 mm 2 mps 749 mmHg 81%
    09:00 +16°C° 0 mm 2 mps 749 mmHg 74%
    10:00 +17°C° 0 mm 3 mps 749 mmHg 67%
    11:00 +19°C° 0 mm 3 mps 749 mmHg 63%
    12:00 +20°C° 0 mm 4 mps 749 mmHg 60%
    13:00 +21°C° 0 mm 4 mps 749 mmHg 57%
    14:00 +20°C° 0 mm 3 mps 749 mmHg 61%
    15:00 +20°C° 0 mm 3 mps 749 mmHg 64%
    16:00 +19°C° 0 mm 2 mps 749 mmHg 67%
    17:00 +18°C° 0 mm 2 mps 749 mmHg 71%
    18:00 +17°C° 0 mm 2 mps 749 mmHg 75%
    19:00 +16°C° 0 mm 2 mps 749 mmHg 80%
    20:00 +15°C° 0 mm 2 mps 750 mmHg 80%
    21:00 +15°C° 0 mm 2 mps 750 mmHg 81%
    22:00 +15°C° 0 mm 2 mps 750 mmHg 82%
    23:00 +14°C° 0 mm 2 mps 750 mmHg 83%

    Tomorrow, 21 October, Monday

    Time Temperature Precipitation Wind Pressure Humidity
    00:00 +14°C° 0 mm 2 mps 750 mmHg 85%
    01:00 +14°C° 0 mm 2 mps 750 mmHg 87%
    02:00 +14°C° 0 mm 2 mps 750 mmHg 87%
    03:00 +13°C° 0 mm 2 mps 750 mmHg 88%
    04:00 +13°C° 0 mm 2 mps 750 mmHg 89%
    05:00 +13°C° 0 mm 2 mps 751 mmHg 89%
    06:00 +13°C° 0 mm 2 mps 751 mmHg 90%
    07:00 +13°C° 0 mm 1 mps 752 mmHg 90%
    08:00 +14°C° 0 mm 1 mps 752 mmHg 84%
    09:00 +16°C° 0 mm 1 mps 752 mmHg 77%
    10:00 +19°C° 0 mm 1 mps 752 mmHg 71%
    11:00 +20°C° 0 mm 1 mps 753 mmHg 67%
    12:00 +21°C° 0 mm 1 mps 753 mmHg 63%
    13:00 +22°C° 0 mm 1 mps 753 mmHg 59%
    14:00 +21°C° 0 mm 1 mps 753 mmHg 62%
    15:00 +21°C° 0 mm 1 mps 753 mmHg 65%
    16:00 +20°C° 0 mm 1 mps 753 mmHg 68%
    17:00 +19°C° 0 mm 1 mps 754 mmHg 72%
    18:00 +17°C° 0 mm 2 mps 754 mmHg 76%
    19:00 +16°C° 0 mm 2 mps 754 mmHg 80%
    20:00 +16°C° 0 mm 2 mps 754 mmHg 82%
    21:00 +15°C° 0 mm 2 mps 754 mmHg 84%
    22:00 +15°C° 0 mm 2 mps 754 mmHg 86%
    23:00 +15°C° 0 mm 1 mps 755 mmHg 87%

    Day after tomorrow, 22 October, Tuesday

    Time Temperature Precipitation Wind Pressure Humidity
    00:00 +14°C° 0 mm 1 mps 755 mmHg 88%
    01:00 +14°C° 0 mm 1 mps 755 mmHg 89%
    02:00 +14°C° 0 mm 1 mps 755 mmHg 89%
    03:00 +13°C° 0 mm 0 mps 755 mmHg 90%
    04:00 +12°C° 0 mm 0 mps 755 mmHg 90%
    05:00 +13°C° 0 mm 1 mps 755 mmHg 91%
    06:00 +13°C° 0 mm 1 mps 755 mmHg 92%
    07:00 +13°C° 0 mm 1 mps 756 mmHg 93%
    08:00 +14°C° 0 mm 2 mps 756 mmHg 87%
    09:00 +16°C° 0 mm 2 mps 756 mmHg 82%
    10:00 +17°C° 0 mm 2 mps 756 mmHg 76%
    11:00 +18°C° 0 mm 2 mps 756 mmHg 73%
    12:00 +19°C° 0 mm 2 mps 756 mmHg 69%
    13:00 +20°C° 0 mm 2 mps 756 mmHg 66%
    14:00 +19°C° 0 mm 2 mps 756 mmHg 68%
    15:00 +18°C° 0 mm 2 mps 756 mmHg 71%
    16:00 +18°C° 0 mm 2 mps 756 mmHg 73%
    17:00 +17°C° 0 mm 2 mps 756 mmHg 76%
    18:00 +16°C° 0 mm 2 mps 756 mmHg 79%
    19:00 +14°C° 0 mm 2 mps 757 mmHg 82%
    20:00 +14°C° 0 mm 2 mps 757 mmHg 82%
    21:00 +14°C° 0 mm 2 mps 757 mmHg 82%
    22:00 +13°C° 0 mm 1 mps 757 mmHg 82%
    23:00 +13°C° 0 mm 1 mps 757 mmHg 84%

    23 October, Wednesday

    Time Temperature Precipitation Wind Pressure Humidity
    00:00 +12°C° 0 mm 1 mps 757 mmHg 85%
    01:00 +12°C° 0 mm 1 mps 757 mmHg 87%
    02:00 +12°C° 0 mm 1 mps 757 mmHg 89%
    03:00 +11°C° 0 mm 1 mps 756 mmHg 90%
    04:00 +11°C° 0 mm 1 mps 756 mmHg 92%
    05:00 +11°C° 0 mm 1 mps 756 mmHg 92%
    06:00 +11°C° 0 mm 1 mps 756 mmHg 92%
    07:00 +11°C° 0 mm 1 mps 756 mmHg 93%
    08:00 +12°C° 0 mm 1 mps 756 mmHg 86%
    09:00 +14°C° 0 mm 1 mps 756 mmHg 79%
    10:00 +15°C° 0 mm 2 mps 756 mmHg 72%
    11:00 +16°C° 0 mm 2 mps 756 mmHg 68%
    12:00 +17°C° 0 mm 2 mps 755 mmHg 64%
    13:00 +18°C° 0 mm 2 mps 755 mmHg 60%
    14:00 +18°C° 0 mm 2 mps 754 mmHg 63%
    15:00 +17°C° 0 mm 3 mps 754 mmHg 66%
    16:00 +17°C° 0 mm 3 mps 753 mmHg 69%
    17:00 +16°C° 0 mm 3 mps 753 mmHg 73%
    18:00 +14°C° 0 mm 3 mps 753 mmHg 77%
    19:00 +13°C° 0 mm 4 mps 753 mmHg 81%
    20:00 +12°C° 0 mm 4 mps 753 mmHg 83%
    21:00 +12°C° 0 mm 4 mps 752 mmHg 85%
    22:00 +12°C° 0 mm 4 mps 752 mmHg 87%
    23:00 +12°C° 0 mm 4 mps 752 mmHg 89%

    24 October, Thursday

    Time Temperature Precipitation Wind Pressure Humidity
    00:00 +12°C° 0 mm 4 mps 751 mmHg 92%
    01:00 +12°C° 0 mm 5 mps 751 mmHg 94%
    02:00 +12°C° 0 mm 4 mps 750 mmHg 95%
    03:00 +11°C° 0 mm 4 mps 750 mmHg 95%
    04:00 +11°C° 0 mm 4 mps 750 mmHg 95%
    05:00 +11°C° 0 mm 4 mps 749 mmHg 95%
    06:00 +11°C° 0 mm 3 mps 749 mmHg 95%
    07:00 +11°C° 0 mm 3 mps 749 mmHg 95%
    08:00 +13°C° 0 mm 4 mps 749 mmHg 87%
    09:00 +14°C° 0 mm 4 mps 749 mmHg 79%
    10:00 +17°C° 0 mm 4 mps 748 mmHg 71%
    11:00 +18°C° 0 mm 4 mps 748 mmHg 65%
    12:00 +19°C° 0 mm 3 mps 748 mmHg 59%
    13:00 +21°C° 0 mm 3 mps 748 mmHg 53%
    14:00 +20°C° 0 mm 3 mps 748 mmHg 56%
    15:00 +19°C° 0 mm 2 mps 747 mmHg 60%
    16:00 +18°C° 0 mm 2 mps 747 mmHg 63%
    17:00 +17°C° 0 mm 2 mps 747 mmHg 68%
    18:00 +16°C° 0 mm 2 mps 748 mmHg 73%
    19:00 +15°C° 0 mm 2 mps 748 mmHg 78%
    20:00 +14°C° 0 mm 2 mps 748 mmHg 80%
    21:00 +14°C° 0 mm 2 mps 748 mmHg 82%
    22:00 +13°C° 0 mm 2 mps 748 mmHg 84%
    23:00 +13°C° 0 mm 2 mps 749 mmHg 85%

    25 October, Friday

    Time Temperature Precipitation Wind Pressure Humidity
    00:00 +13°C° 0 mm 2 mps 749 mmHg 87%
    01:00 +13°C° 0 mm 2 mps 749 mmHg 88%
    02:00 +12°C° 0 mm 2 mps 749 mmHg 90%
    03:00 +12°C° 0 mm 2 mps 749 mmHg 91%
    04:00 +12°C° 0 mm 2 mps 750 mmHg 93%
    05:00 +12°C° 0 mm 2 mps 750 mmHg 94%
    06:00 +10°C° 0 mm 2 mps 750 mmHg 94%
    07:00 +10°C° 0 mm 2 mps 750 mmHg 95%
    08:00 +13°C° 0 mm 2 mps 751 mmHg 90%
    09:00 +13°C° 0 mm 3 mps 751 mmHg 85%
    10:00 +14°C° 0 mm 3 mps 752 mmHg 80%
    11:00 +16°C° 0 mm 3 mps 752 mmHg 77%
    12:00 +17°C° 0 mm 3 mps 752 mmHg 75%
    13:00 +17°C° 0 mm 3 mps 752 mmHg 72%
    14:00 +17°C° 0 mm 2 mps 752 mmHg 75%
    15:00 +16°C° 0 mm 2 mps 752 mmHg 77%
    16:00 +16°C° 0 mm 2 mps 752 mmHg 79%
    17:00 +15°C° 0 mm 2 mps 752 mmHg 80%
    18:00 +15°C° 0 mm 2 mps 753 mmHg 82%
    19:00 +15°C° 0 mm 2 mps 753 mmHg 83%
    20:00 +14°C° 0 mm 2 mps 753 mmHg 84%
    21:00 +14°C° 0 mm 2 mps 753 mmHg 85%
    22:00 +13°C° 0 mm 1 mps 753 mmHg 87%
    23:00 +14°C° 0 mm 1 mps 753 mmHg 86%
    Show more